This is the latest recevied weather packets stored in our database for station/object I8ZSE-10. If no packets are shown the sender has not sent any weather packets the latest 10 day(s).
| Time | Temp. | Humidity | Pressure | Rain* | Wind** | Luminosity | Snow |
|---|---|---|---|---|---|---|---|
| 1788313230 | 22.78° C | 66% | - | 0 mm | - | - | - |
| 1788312630 | 22.78° C | 68% | - | 0 mm | - | - | - |
| 1788312030 | 22.78° C | 68% | - | 0 mm | - | - | - |
| 1788311430 | 22.78° C | 67% | - | 0 mm | - | - | - |
| 1788310830 | 23.33° C | 67% | - | 0 mm | - | - | - |
| 1788310230 | 22.78° C | 68% | - | 0 mm | - | - | - |
| 1788309630 | 23.33° C | 66% | - | 0 mm | - | - | - |
| 1788309039 | 22.78° C | 67% | - | 0 mm | - | - | - |
| 1788308430 | 23.33° C | 66% | - | 0 mm | - | - | - |
| 1788307830 | 23.33° C | 65% | - | 0 mm | - | - | - |
| 1788307230 | 23.33° C | 66% | - | 0 mm | - | - | - |
| 1788306630 | 23.33° C | 66% | - | 0 mm | - | - | - |
| 1788306030 | 23.33° C | 67% | - | 0 mm | - | - | - |
| 1788305430 | 23.33° C | 66% | - | 0 mm | - | - | - |
| 1788304830 | 23.89° C | 66% | - | 0 mm | - | - | - |
| 1788304230 | 23.89° C | 64% | - | 0 mm | - | - | - |
| 1788303630 | 24.44° C | 60% | - | 0 mm | - | - | - |
| 1788303030 | 24.44° C | 61% | - | 0 mm | - | - | - |
| 1788302430 | 24.44° C | 58% | - | 0 mm | - | - | - |
| 1788301830 | 25° C | 58% | - | 0 mm | - | - | - |
| 1788301230 | 25° C | 57% | - | 0 mm | - | - | - |
| 1788300630 | 25° C | 58% | - | 0 mm | - | - | - |
| 1788300030 | 24.44° C | 61% | - | 0 mm | - | - | - |
| 1788299430 | 24.44° C | 61% | - | 0 mm | - | - | - |
| 1788298830 | 25° C | 58% | - | 0 mm | - | - | - |
* Rain latest hour (hover to see other rain measurements)
** Current wind speed in m/s (hover to see current wind gust speed)